Weather in Krasnotorovka

Russia / Kaliningrad Oblast     54°53′43″N   20°01′15″E
temp.,
°C
wind,
m/s
gust,
m/s
humid.,
%
clouds,
%
prec.,
mm/h
press.,
hPa
HPBL,
m
6 may, thu
thu623:00+7ssw698071 0.1 996126
02:00+7sw13178190 0.1 996815
05:00+5sw151992100 0.6 9961317
08:00+5wsw161985100 1.0 9971206
11:00+5sw162085100 0.0 9991213
14:00+6wsw162182100 0.1 10001180
17:00+6w15217978 0.0 10011028
20:00+6wsw12188310 0.0 1002847
7 may, fri
fri723:00+7wsw1013795 0.0 1003693
02:00+6wsw91184100 0.0 1003477
05:00+6wsw7886100 0.0 1003400
08:00+6wsw3484100 0.0 1003277
11:00+6w2283100 0.0 1004218
14:00+6nw3383100 0.0 1004309
17:00+6nnw5580100 0.1 1004466
20:00+6nw6783100 0.1 1005471
8 may, sat
sat823:00+5nw8978100 0.1 1007668
02:00+5nw91175100 0.1 1008752
05:00+6wnw81086100 0.3 1009571
08:00+6w9108894 0.9 1011598
11:00+6wnw79865 0.6 1012443
14:00+6wnw67860 0.6 1014376
17:00+7wnw69830 0.0 1016348
20:00+7w58885 0.0 1016246
9 may, sun
sun923:00+7wsw798145 0.0 1017246
02:00+7sw6879100 0.0 1017204
05:00+6ssw7981100 0.0 1017216
08:00+7s7982100 0.0 1017211
11:00+9sse7973100 0.0 1016117
14:00+9sse71179100 0.3 1014130
17:00+10ssw8118184 0.1 1014116
20:00+11s798242 0.1 101461
10 may, mon
mon1023:00+10s71088100 0.0 101470
02:00+10s710875 0.0 101575
05:00+9sse711867 0.0 1015104
08:00+10sse69836 0.0 101664
11:00+13sse67747 0.0 101544
14:00+15se89707 0.0 101455
17:00+15sse8117299 0.0 101363
20:00+13se797971 0.0 101350